�N����,����,�~����,�C��,���x,�C��,����,���ϕ���,�ő�u�ԕ���,�ő厞����,���˗�,�I�_���x,�n�����x,�ő啗���N��,DTYPE
"16/11/03","00:10",0.0,6.5,96.1,1014.7,291.7,1.6,2.0,306.7,0.00,6.0,14.0,"00:04:08",1
"16/11/03","00:20",0.0,6.5,96.4,1014.5,286.5,1.5,1.6,308.3,0.00,6.0,14.0,"00:10:56",1
"16/11/03","00:30",0.0,6.5,96.6,1014.2,289.5,1.5,1.7,295.6,0.00,6.0,13.9,"00:28:40",1
"16/11/03","00:40",0.0,6.6,96.8,1014.2,297.6,1.5,1.9,312.9,0.00,6.2,13.9,"00:30:02",1
"16/11/03","00:50",0.0,6.6,96.7,1014.5,305.5,1.7,3.2,330.4,0.00,6.2,13.8,"00:48:40",1
"16/11/03","01:00",0.0,6.4,96.7,1014.0,306.4,2.2,3.3,325.1,0.00,6.0,13.7,"00:50:16",1
"16/11/03","01:10",0.0,6.3,97.1,1014.0,287.7,1.5,2.1,308.8,0.00,5.9,13.8,"01:01:36",1
"16/11/03","01:20",0.0,6.4,97.3,1014.2,281.9,1.5,1.8,286.4,0.00,6.0,13.5,"01:18:56",1
"16/11/03","01:30",0.0,6.5,97.5,1014.0,291.1,1.3,1.9,324.3,0.00,6.2,13.7,"01:29:52",1
"16/11/03","01:40",0.0,6.9,97.4,1014.0,332.8,1.8,2.7,318.0,0.00,6.6,13.6,"01:38:16",1
"16/11/03","01:50",0.0,6.9,97.0,1013.8,295.8,1.6,2.4,317.7,0.00,6.5,13.5,"01:40:40",1
"16/11/03","02:00",0.0,7.1,97.5,1013.8,304.3,2.1,3.4,324.3,0.00,6.8,13.4,"01:56:00",1
"16/11/03","02:10",0.0,7.7,97.1,1013.5,319.3,2.6,3.7,330.2,0.00,7.3,13.5,"02:07:20",1
"16/11/03","02:20",0.0,8.0,96.2,1013.8,315.8,2.5,3.3,329.3,0.00,7.5,13.4,"02:13:52",1
"16/11/03","02:30",0.0,8.2,95.4,1013.8,316.3,2.2,3.4,309.5,0.00,7.5,13.6,"02:20:52",1
"16/11/03","02:40",0.0,8.1,94.5,1013.5,329.4,2.0,3.9,340.4,0.00,7.3,13.3,"02:33:52",1
"16/11/03","02:50",0.0,7.7,93.9,1013.5,321.2,1.6,2.6,331.4,0.00,6.8,13.3,"02:42:20",1
"16/11/03","03:00",0.0,7.4,93.8,1013.3,319.7,2.1,2.7,316.2,0.00,6.5,13.5,"02:56:18",1
"16/11/03","03:10",0.0,7.3,94.2,1013.5,307.3,1.8,2.2,320.7,0.00,6.5,13.3,"03:01:38",1
"16/11/03","03:20",0.0,7.8,95.1,1013.5,311.0,2.1,3.2,329.8,0.00,7.1,13.3,"03:12:56",1
"16/11/03","03:30",0.0,8.3,94.6,1013.5,317.8,2.0,2.8,313.9,0.00,7.5,13.4,"03:20:48",1
"16/11/03","03:40",0.0,8.7,93.9,1013.5,323.2,2.2,3.2,320.4,0.00,7.8,13.4,"03:34:30",1
"16/11/03","03:50",0.0,8.9,92.9,1013.5,323.7,2.1,4.1,344.7,0.00,7.9,13.5,"03:49:54",1
"16/11/03","04:00",0.0,9.0,92.0,1013.8,330.6,2.2,3.5,346.9,0.00,7.8,13.2,"03:50:38",1
"16/11/03","04:10",0.0,9.0,91.4,1013.5,331.2,2.1,4.0,358.1,0.00,7.7,13.3,"04:01:10",1
"16/11/03","04:20",0.0,8.8,90.9,1013.5,341.0,2.2,3.2,330.8,0.00,7.4,13.4,"04:12:42",1
"16/11/03","04:30",0.0,8.6,91.2,1013.8,340.5,1.8,2.6,338.9,0.00,7.3,13.4,"04:26:52",1
"16/11/03","04:40",0.0,8.7,91.8,1013.8,330.3,2.0,2.6,339.5,0.00,7.5,13.4,"04:39:20",1
"16/11/03","04:50",0.0,9.1,91.2,1013.8,322.6,2.0,3.6,343.8,0.00,7.8,13.2,"04:47:48",1
"16/11/03","05:00",0.0,9.4,90.2,1014.0,308.6,1.5,2.1,330.4,0.00,7.9,13.2,"04:51:24",1
"16/11/03","05:10",0.0,9.6,89.5,1014.0,326.0,1.6,2.4,342.8,0.00,8.0,13.2,"05:04:56",1
"16/11/03","05:20",0.0,9.6,88.3,1013.8,323.4,1.6,2.5,340.7,0.00,7.8,13.3,"05:14:00",1
"16/11/03","05:30",0.0,9.4,87.5,1014.2,299.6,1.2,1.7,322.2,0.00,7.5,13.5,"05:20:58",1
"16/11/03","05:40",0.0,9.2,87.3,1014.0,289.9,1.1,1.4,315.9,0.00,7.2,13.3,"05:35:06",1
"16/11/03","05:50",0.0,8.9,87.8,1014.2,315.7,1.2,1.9,333.3,0.00,7.0,13.2,"05:49:50",1
"16/11/03","06:00",0.0,8.3,87.8,1014.0,303.9,1.0,1.6,332.5,0.00,6.4,13.2,"05:50:20",1
"16/11/03","06:10",0.0,7.8,89.1,1014.0,302.7,1.0,1.6,309.4,0.00,6.2,13.5,"06:00:24",1
"16/11/03","06:20",0.0,7.4,90.3,1014.0,303.2,1.2,1.8,301.5,0.00,6.0,13.1,"06:12:10",1
"16/11/03","06:30",0.0,7.4,91.7,1013.8,304.0,1.5,2.0,313.4,0.00,6.2,13.2,"06:26:18",1
"16/11/03","06:40",0.0,7.2,91.9,1014.0,312.2,1.2,2.0,315.6,0.00,6.0,13.1,"06:36:12",1
"16/11/03","06:50",0.0,7.1,92.3,1014.2,309.2,1.5,2.4,337.5,0.00,6.0,13.2,"06:43:24",1
"16/11/03","07:00",0.0,7.2,93.1,1014.0,315.6,1.5,2.1,316.6,0.00,6.2,12.9,"06:54:54",1
"16/11/03","07:10",0.0,8.0,91.8,1014.2,303.4,1.1,1.6,310.8,0.00,6.8,13.0,"07:02:00",1
"16/11/03","07:20",0.0,9.1,88.9,1014.5,301.5,0.7,1.3,309.1,0.01,7.4,12.7,"07:14:00",1
"16/11/03","07:30",0.0,9.6,85.8,1014.5,266.2,1.1,2.0,244.5,0.02,7.4,12.9,"07:25:04",1
"16/11/03","07:40",0.0,10.3,85.2,1014.5,328.4,0.7,1.9,317.9,0.04,8.0,12.9,"07:30:32",1
"16/11/03","07:50",0.0,10.9,82.1,1014.9,354.9,0.5,1.1,357.2,0.06,8.0,12.8,"07:45:52",1
"16/11/03","08:00",0.0,11.9,76.8,1014.7,276.7,0.6,1.7,329.9,0.08,8.0,12.9,"07:51:52",1
"16/11/03","08:10",0.0,12.4,71.7,1015.4,266.0,1.0,2.0,246.3,0.10,7.5,13.1,"08:05:52",1
"16/11/03","08:20",0.0,12.8,68.1,1015.4,278.5,1.3,3.3,248.3,0.13,7.1,13.1,"08:12:32",1
"16/11/03","08:30",0.0,13.1,67.0,1015.6,294.6,1.5,4.0,331.8,0.16,7.2,13.4,"08:27:28",1
"16/11/03","08:40",0.0,13.4,67.0,1015.6,290.5,1.3,2.8,337.8,0.18,7.4,13.5,"08:31:12",1
"16/11/03","08:50",0.0,13.6,66.2,1015.6,262.7,1.3,3.9,208.9,0.21,7.5,13.4,"08:47:20",1
"16/11/03","09:00",0.0,13.9,64.1,1015.6,274.1,1.3,2.9,226.5,0.23,7.3,13.5,"08:50:56",1
"16/11/03","09:10",0.0,14.6,64.4,1015.4,288.4,1.1,2.5,237.7,0.26,8.0,13.6,"09:04:24",1
"16/11/03","09:20",0.0,14.8,61.6,1015.4,293.2,1.1,2.7,327.7,0.28,7.5,13.9,"09:19:36",1
"16/11/03","09:30",0.0,15.1,61.3,1014.9,297.7,1.1,2.6,356.7,0.30,7.8,14.0,"09:21:20",1
"16/11/03","09:40",0.0,15.1,61.2,1014.9,295.5,1.2,2.8,307.8,0.31,7.7,14.1,"09:31:04",1
"16/11/03","09:50",0.0,15.1,58.3,1014.9,273.8,1.5,4.1,210.4,0.28,7.0,14.3,"09:48:32",1
"16/11/03","10:00",0.0,14.9,61.3,1014.7,272.6,1.6,4.5,228.8,0.24,7.6,14.5,"09:51:12",1
"16/11/03","10:10",0.0,15.4,59.6,1014.9,274.9,1.6,3.7,208.7,0.34,7.6,14.7,"10:09:12",1
"16/11/03","10:20",0.0,15.0,58.5,1014.7,276.6,1.5,4.9,238.0,0.29,7.0,14.7,"10:18:16",1
"16/11/03","10:30",0.0,15.5,58.1,1014.7,301.0,1.8,4.3,357.7,0.45,7.3,14.9,"10:27:28",1
"16/11/03","10:40",0.0,15.8,57.3,1014.2,298.5,1.6,4.5,342.3,0.44,7.4,14.9,"10:37:12",1
"16/11/03","10:50",0.0,16.1,55.2,1014.2,278.9,1.5,4.0,337.3,0.46,7.2,15.2,"10:46:24",1
"16/11/03","11:00",0.0,16.5,55.8,1014.0,274.3,1.5,4.5,223.1,0.44,7.7,15.2,"10:56:24",1
"16/11/03","11:10",0.0,16.3,55.2,1014.0,285.9,1.1,3.7,229.6,0.42,7.3,15.7,"11:07:52",1
"16/11/03","11:20",0.0,15.5,54.5,1013.5,279.8,1.7,4.5,241.7,0.29,6.4,15.7,"11:11:28",1
"16/11/03","11:30",0.0,15.3,58.2,1013.5,309.4,1.5,3.3,1.1,0.14,7.2,16.0,"11:25:12",1
"16/11/03","11:40",0.0,14.9,57.4,1013.5,311.4,1.3,2.6,305.6,0.13,6.6,16.1,"11:37:04",1
"16/11/03","11:50",0.0,15.8,60.1,1013.0,295.6,1.3,3.3,333.4,0.32,8.1,16.1,"11:40:02",1
"16/11/03","12:00",0.0,16.6,56.4,1012.8,287.1,1.3,3.3,238.1,0.49,7.9,16.1,"11:52:32",1
"16/11/03","12:10",0.0,16.9,55.5,1012.3,274.9,1.6,6.3,233.5,0.50,8.0,15.9,"12:04:32",1
"16/11/03","12:20",0.0,16.9,55.5,1012.3,337.2,1.3,3.9,349.3,0.49,8.0,16.4,"12:19:20",1
"16/11/03","12:30",0.0,16.9,52.8,1012.1,320.5,1.8,4.4,348.5,0.48,7.3,16.7,"12:28:40",1
"16/11/03","12:40",0.0,16.7,54.5,1012.3,286.4,1.3,3.1,357.5,0.36,7.5,16.9,"12:30:08",1
"16/11/03","12:50",0.0,17.5,53.9,1012.3,262.9,1.8,4.1,222.8,0.50,8.1,16.9,"12:42:08",1
"16/11/03","13:00",0.0,18.0,50.2,1011.9,307.1,1.6,4.8,348.5,0.53,7.5,17.2,"12:57:28",1
"16/11/03","13:10",0.0,15.9,53.4,1012.1,347.8,2.5,5.7,351.8,0.20,6.5,17.1,"13:09:28",1
"16/11/03","13:20",0.0,15.3,56.3,1012.3,334.0,3.0,7.1,23.1,0.08,6.7,17.4,"13:11:12",1
"16/11/03","13:30",0.0,14.2,62.8,1012.1,334.8,2.1,5.0,345.4,0.07,7.3,16.9,"13:23:12",1
"16/11/03","13:40",0.0,13.6,65.9,1011.9,330.0,1.8,4.1,352.8,0.15,7.4,16.9,"13:32:34",1
"16/11/03","13:50",0.0,15.5,64.1,1011.6,305.6,1.3,2.8,336.8,0.37,8.8,17.1,"13:46:40",1
"16/11/03","14:00",0.0,15.8,57.6,1011.6,322.7,2.1,3.7,338.6,0.37,7.5,17.1,"13:57:12",1
"16/11/03","14:10",0.0,16.7,55.0,1011.6,290.2,1.3,2.8,329.1,0.33,7.7,17.0,"14:09:20",1
"16/11/03","14:20",0.0,16.1,57.1,1011.6,325.7,1.6,3.6,331.3,0.24,7.7,17.3,"14:16:08",1
"16/11/03","14:30",0.0,15.1,58.2,1011.9,327.6,1.8,4.8,352.7,0.07,7.0,17.2,"14:20:48",1
"16/11/03","14:40",0.0,15.7,57.7,1011.9,292.7,1.7,4.8,234.5,0.21,7.4,17.2,"14:39:52",1
"16/11/03","14:50",0.0,15.7,59.0,1011.6,283.6,1.7,4.5,233.4,0.25,7.8,17.3,"14:40:16",1
"16/11/03","15:00",0.0,15.2,60.5,1011.6,284.3,1.6,5.6,235.9,0.14,7.7,17.2,"14:55:44",1
"16/11/03","15:10",0.0,14.6,63.8,1011.4,277.7,1.5,4.9,236.8,0.08,7.9,17.3,"15:07:12",1
"16/11/03","15:20",0.0,14.3,65.2,1011.4,298.7,1.1,2.4,324.7,0.05,7.9,17.1,"15:15:20",1
"16/11/03","15:30",0.0,14.5,65.7,1011.6,278.2,1.1,3.4,233.0,0.08,8.2,17.2,"15:22:16",1
"16/11/03","15:40",0.0,14.6,65.1,1011.9,259.8,1.5,3.1,250.7,0.08,8.2,17.2,"15:36:32",1
"16/11/03","15:50",0.0,14.3,65.8,1011.6,275.1,1.1,2.4,304.4,0.04,8.0,16.9,"15:44:16",1
"16/11/03","16:00",0.0,14.0,67.2,1011.9,269.7,1.1,2.8,239.8,0.01,8.1,16.9,"15:53:52",1
"16/11/03","16:10",0.0,13.8,68.6,1011.6,285.0,1.0,2.1,242.5,0.00,8.2,16.9,"16:00:16",1
"16/11/03","16:20",0.0,13.6,69.5,1011.9,301.4,0.8,2.0,341.9,0.00,8.2,16.8,"16:11:36",1
"16/11/03","16:30",0.0,13.6,69.0,1011.9,305.6,1.1,2.4,331.8,0.00,8.1,16.6,"16:29:04",1
"16/11/03","16:40",0.0,13.5,68.9,1011.9,309.9,1.2,2.7,344.4,0.01,7.9,16.7,"16:33:12",1
"16/11/03","16:50",0.0,13.1,70.1,1012.1,301.2,1.0,3.1,323.4,0.00,7.8,16.4,"16:42:48",1
"16/11/03","17:00",0.0,12.7,71.7,1012.1,293.5,0.8,1.8,356.3,0.00,7.8,16.3,"16:57:36",1
"16/11/03","17:10",0.0,12.4,72.7,1011.9,294.7,1.1,2.0,322.9,0.00,7.7,16.4,"17:02:26",1
"16/11/03","17:20",0.0,12.2,74.0,1012.1,281.9,1.0,1.4,248.4,0.00,7.7,16.4,"17:15:52",1
"16/11/03","17:30",0.0,11.9,75.0,1011.9,285.1,1.1,1.4,263.9,0.00,7.7,16.2,"17:22:00",1
"16/11/03","17:40",0.0,11.6,76.9,1012.1,299.0,1.1,1.9,327.0,0.00,7.7,16.2,"17:36:16",1
"16/11/03","17:50",0.0,10.9,79.2,1011.9,301.7,1.2,1.6,314.1,0.00,7.5,16.2,"17:40:16",1
"16/11/03","18:00",0.0,10.3,81.9,1011.6,301.4,1.1,1.9,320.7,0.00,7.4,16.0,"17:55:02",1
"16/11/03","18:10",0.0,9.9,84.0,1011.6,319.1,1.3,2.4,327.2,0.00,7.4,15.9,"18:06:58",1
"16/11/03","18:20",0.0,9.6,84.8,1011.6,297.8,1.2,1.9,321.1,0.00,7.2,15.7,"18:12:40",1
"16/11/03","18:30",0.0,9.3,86.6,1011.4,311.9,1.2,1.7,332.6,0.00,7.2,15.6,"18:27:14",1
"16/11/03","18:40",0.0,9.2,88.2,1011.6,305.4,1.2,2.2,330.5,0.00,7.4,15.4,"18:33:12",1
"16/11/03","18:50",0.0,9.1,89.2,1011.4,296.4,0.8,1.6,317.9,0.00,7.5,15.3,"18:49:56",1
"16/11/03","19:00",0.0,9.0,89.8,1011.4,313.1,1.2,1.6,324.0,0.00,7.5,15.4,"18:50:16",1
"16/11/03","19:10",0.0,8.8,90.5,1011.4,315.1,1.6,2.1,321.6,0.00,7.4,15.3,"19:05:54",1
"16/11/03","19:20",0.0,9.1,91.7,1011.4,331.6,1.7,2.2,330.0,0.00,7.9,15.1,"19:15:54",1
"16/11/03","19:30",0.0,9.4,91.5,1011.4,322.9,1.5,1.9,321.3,0.00,8.1,15.2,"19:20:56",1
"16/11/03","19:40",0.0,9.5,91.0,1011.9,288.1,1.0,1.3,258.6,0.00,8.1,15.0,"19:31:14",1
"16/11/03","19:50",0.0,9.2,90.9,1011.4,296.3,1.1,1.7,316.4,0.00,7.8,14.9,"19:42:40",1
"16/11/03","20:00",0.0,8.8,91.3,1011.9,310.4,1.5,2.1,339.3,0.00,7.5,15.0,"19:53:00",1
"16/11/03","20:10",0.0,8.5,91.9,1011.9,314.9,1.6,2.0,321.2,0.00,7.3,14.9,"20:04:00",1
"16/11/03","20:20",0.0,8.2,92.4,1011.6,307.8,1.2,1.7,309.2,0.00,7.1,14.8,"20:19:12",1
"16/11/03","20:30",0.0,8.1,93.0,1011.9,314.0,1.7,2.6,320.6,0.00,7.1,14.7,"20:24:08",1
"16/11/03","20:40",0.0,8.1,93.9,1011.9,311.5,1.5,2.1,339.6,0.00,7.2,14.6,"20:36:48",1
"16/11/03","20:50",0.0,8.3,94.5,1012.1,299.4,1.1,1.6,318.5,0.00,7.5,14.4,"20:47:04",1
"16/11/03","21:00",0.0,8.6,94.9,1011.9,297.9,1.1,1.6,324.6,0.00,7.9,14.6,"20:53:22",1
"16/11/03","21:10",0.0,8.8,95.1,1011.9,313.3,1.5,1.8,323.2,0.00,8.1,14.4,"21:05:32",1
"16/11/03","21:20",0.0,9.1,95.0,1011.9,319.7,1.6,2.1,313.8,0.00,8.4,14.7,"21:10:32",1
"16/11/03","21:30",0.0,9.4,94.6,1012.1,288.6,1.1,2.0,319.3,0.00,8.6,14.6,"21:20:24",1
"16/11/03","21:40",0.0,9.5,94.5,1012.1,286.6,0.8,1.1,297.7,0.00,8.7,14.7,"21:30:24",1
"16/11/03","21:50",0.0,9.5,94.1,1012.1,294.1,1.0,1.4,316.3,0.00,8.6,14.7,"21:43:44",1
"16/11/03","22:00",0.0,9.4,93.9,1012.3,309.8,1.1,2.1,324.3,0.00,8.5,14.3,"21:58:26",1
"16/11/03","22:10",0.0,9.3,93.7,1012.3,312.6,1.2,1.9,330.6,0.00,8.4,14.6,"22:06:48",1
"16/11/03","22:20",0.0,9.0,93.6,1012.3,308.5,1.1,1.6,329.1,0.00,8.1,14.5,"22:10:16",1
"16/11/03","22:30",0.0,8.7,94.2,1012.3,314.7,1.3,1.9,324.3,0.00,7.9,14.5,"22:21:50",1
"16/11/03","22:40",0.0,8.6,94.4,1012.3,318.7,1.6,2.2,334.6,0.00,7.8,14.2,"22:34:58",1
"16/11/03","22:50",0.0,8.3,94.6,1012.6,310.6,1.3,1.8,311.5,0.00,7.5,14.2,"22:48:14",1
"16/11/03","23:00",0.0,8.2,94.6,1012.3,304.8,1.2,1.8,323.4,0.00,7.4,14.4,"22:55:54",1
"16/11/03","23:10",0.0,8.0,94.9,1012.3,321.8,1.3,2.0,317.3,0.00,7.3,14.2,"23:08:36",1
"16/11/03","23:20",0.0,7.7,95.0,1012.1,304.0,1.6,2.0,320.6,0.00,7.0,14.2,"23:15:28",1
"16/11/03","23:30",0.0,7.4,95.2,1012.3,305.7,1.7,2.2,316.1,0.00,6.7,13.9,"23:21:12",1
"16/11/03","23:40",0.0,7.3,95.9,1012.1,308.1,1.5,2.1,318.1,0.00,6.7,14.0,"23:38:08",1
"16/11/03","23:50",0.0,7.2,96.0,1012.1,301.0,2.0,3.3,325.0,0.00,6.6,14.2,"23:45:36",1
"16/11/03","24:00",0.0,7.0,96.3,1012.1,296.0,1.6,2.5,312.0,0.00,6.5,13.9,"23:57:44",1
